When you browse on this site, cookies collect data to enhance your experience and personalize the content and advertising you see.
Visit our Privacy Policy to learn more. By continuing to use the site, you agree to this use of cookies and data.
  • In France
  • List of Countries
  • For 7 days
  • Water Temperature
  • Satellite Maps
  • Weather Map
  • Weather Widgets
  • user-avatar
    Login

    Hourly Weather Cumiluh

    Today, 13 December, Thursday

    Time Temperature Precipitation Wind Pressure Humidity
    00:00 -2°C° 0.4 mm 3 mps 586 mmHg 76%
    01:00 -2°C° 0.1 mm 3 mps 586 mmHg 77%
    02:00 -2°C° 0.1 mm 3 mps 586 mmHg 77%
    03:00 -4°C° 0.1 mm 3 mps 585 mmHg 78%
    04:00 -4°C° 0 mm 3 mps 585 mmHg 78%
    05:00 -5°C° 0 mm 3 mps 585 mmHg 78%
    06:00 -5°C° 0 mm 3 mps 585 mmHg 78%
    07:00 -5°C° 0.1 mm 3 mps 586 mmHg 77%
    08:00 -4°C° 0.1 mm 3 mps 587 mmHg 76%
    09:00 -4°C° 0.1 mm 3 mps 587 mmHg 75%
    10:00 -4°C° 0.3 mm 3 mps 587 mmHg 76%
    11:00 -4°C° 0.3 mm 3 mps 588 mmHg 78%
    12:00 -4°C° 0.3 mm 3 mps 588 mmHg 79%
    13:00 -4°C° 0.3 mm 3 mps 588 mmHg 80%
    14:00 -5°C° 0.3 mm 3 mps 589 mmHg 80%
    15:00 -5°C° 0.3 mm 3 mps 589 mmHg 81%
    16:00 -5°C° 0.1 mm 2 mps 589 mmHg 81%
    17:00 -6°C° 0.1 mm 2 mps 589 mmHg 82%
    18:00 -7°C° 0.1 mm 2 mps 589 mmHg 82%
    19:00 -8°C° 0 mm 2 mps 589 mmHg 76%
    20:00 -9°C° 0 mm 2 mps 589 mmHg 71%
    21:00 -9°C° 0 mm 2 mps 589 mmHg 65%
    22:00 -10°C° 0 mm 2 mps 589 mmHg 63%
    23:00 -10°C° 0 mm 2 mps 589 mmHg 61%

    Tomorrow, 14 December, Friday

    Time Temperature Precipitation Wind Pressure Humidity
    00:00 -10°C° 0 mm 2 mps 589 mmHg 59%
    01:00 -10°C° 0 mm 2 mps 590 mmHg 59%
    02:00 -12°C° 0 mm 2 mps 590 mmHg 59%
    03:00 -12°C° 0 mm 2 mps 590 mmHg 60%
    04:00 -12°C° 0 mm 2 mps 590 mmHg 62%
    05:00 -12°C° 0 mm 2 mps 590 mmHg 64%
    06:00 -12°C° 0 mm 2 mps 591 mmHg 66%
    07:00 -10°C° 0 mm 2 mps 591 mmHg 66%
    08:00 -9°C° 0 mm 2 mps 592 mmHg 65%
    09:00 -8°C° 0 mm 2 mps 592 mmHg 65%
    10:00 -7°C° 0 mm 2 mps 592 mmHg 62%
    11:00 -6°C° 0 mm 2 mps 593 mmHg 60%
    12:00 -5°C° 0 mm 2 mps 593 mmHg 57%
    13:00 -6°C° 0 mm 2 mps 593 mmHg 59%
    14:00 -6°C° 0 mm 2 mps 592 mmHg 61%
    15:00 -7°C° 0 mm 2 mps 592 mmHg 62%
    16:00 -7°C° 0.1 mm 2 mps 592 mmHg 66%
    17:00 -8°C° 0.1 mm 2 mps 592 mmHg 70%
    18:00 -8°C° 0.1 mm 1 mps 592 mmHg 74%
    19:00 -8°C° 0.1 mm 1 mps 592 mmHg 75%
    20:00 -8°C° 0.1 mm 1 mps 592 mmHg 75%
    21:00 -9°C° 0.1 mm 1 mps 592 mmHg 76%
    22:00 -10°C° 0 mm 2 mps 592 mmHg 76%
    23:00 -10°C° 0 mm 2 mps 592 mmHg 76%

    Day after tomorrow, 15 December, Saturday

    Time Temperature Precipitation Wind Pressure Humidity
    00:00 -12°C° 0 mm 2 mps 591 mmHg 75%
    01:00 -12°C° 0 mm 2 mps 591 mmHg 75%
    02:00 -12°C° 0 mm 2 mps 591 mmHg 74%
    03:00 -13°C° 0 mm 2 mps 591 mmHg 73%
    04:00 -13°C° 0 mm 2 mps 591 mmHg 72%
    05:00 -13°C° 0 mm 2 mps 591 mmHg 71%
    06:00 -13°C° 0 mm 2 mps 591 mmHg 70%
    07:00 -12°C° 0 mm 2 mps 592 mmHg 68%
    08:00 -9°C° 0 mm 1 mps 593 mmHg 66%
    09:00 -8°C° 0 mm 1 mps 593 mmHg 63%
    10:00 -6°C° 0 mm 1 mps 594 mmHg 61%
    11:00 -4°C° 0 mm 1 mps 594 mmHg 59%
    12:00 -3°C° 0 mm 1 mps 594 mmHg 57%
    13:00 -3°C° 0 mm 1 mps 594 mmHg 58%
    14:00 -4°C° 0 mm 1 mps 594 mmHg 59%
    15:00 -4°C° 0 mm 1 mps 594 mmHg 60%
    16:00 -6°C° 0 mm 1 mps 594 mmHg 60%
    17:00 -7°C° 0 mm 1 mps 593 mmHg 60%
    18:00 -10°C° 0 mm 2 mps 593 mmHg 59%
    19:00 -9°C° 0 mm 2 mps 593 mmHg 58%
    20:00 -9°C° 0 mm 2 mps 593 mmHg 57%
    21:00 -9°C° 0 mm 2 mps 593 mmHg 56%
    22:00 -9°C° 0 mm 2 mps 593 mmHg 58%
    23:00 -9°C° 0 mm 2 mps 593 mmHg 59%

    16 December, Sunday

    Time Temperature Precipitation Wind Pressure Humidity
    00:00 -9°C° 0 mm 2 mps 593 mmHg 60%
    01:00 -9°C° 0 mm 2 mps 593 mmHg 61%
    02:00 -9°C° 0 mm 2 mps 593 mmHg 61%
    03:00 -9°C° 0 mm 2 mps 593 mmHg 62%
    04:00 -9°C° 0 mm 2 mps 594 mmHg 62%
    05:00 -8°C° 0 mm 2 mps 594 mmHg 62%
    06:00 -8°C° 0 mm 2 mps 594 mmHg 62%
    07:00 -6°C° 0 mm 1 mps 594 mmHg 61%
    08:00 -4°C° 0 mm 1 mps 595 mmHg 60%
    09:00 -3°C° 0 mm 1 mps 596 mmHg 60%
    10:00 -2°C° 0 mm 1 mps 596 mmHg 59%
    11:00 -1°C° 0 mm 1 mps 596 mmHg 58%
    12:00 -2°C° 0 mm 2 mps 596 mmHg 57%
    13:00 0°C° 0 mm 1 mps 596 mmHg 59%
    14:00 -1°C° 0 mm 1 mps 595 mmHg 61%
    15:00 -1°C° 0 mm 1 mps 595 mmHg 63%
    16:00 -4°C° 0 mm 2 mps 595 mmHg 62%
    17:00 -6°C° 0 mm 2 mps 594 mmHg 61%
    18:00 -7°C° 0 mm 2 mps 594 mmHg 60%
    19:00 -7°C° 0 mm 2 mps 593 mmHg 59%
    20:00 -7°C° 0 mm 2 mps 593 mmHg 59%
    21:00 -7°C° 0 mm 2 mps 593 mmHg 58%
    22:00 -7°C° 0 mm 2 mps 593 mmHg 59%
    23:00 -7°C° 0 mm 2 mps 593 mmHg 60%

    17 December, Monday

    Time Temperature Precipitation Wind Pressure Humidity
    00:00 -7°C° 0 mm 2 mps 593 mmHg 60%
    01:00 -7°C° 0 mm 2 mps 592 mmHg 61%
    02:00 -7°C° 0 mm 2 mps 592 mmHg 61%
    03:00 -7°C° 0 mm 2 mps 592 mmHg 62%
    04:00 -7°C° 0 mm 2 mps 592 mmHg 61%
    05:00 -7°C° 0 mm 2 mps 592 mmHg 60%
    06:00 -6°C° 0 mm 2 mps 591 mmHg 59%
    07:00 -6°C° 0 mm 2 mps 592 mmHg 58%
    08:00 -5°C° 0 mm 2 mps 592 mmHg 57%
    09:00 -4°C° 0 mm 2 mps 592 mmHg 56%
    10:00 -4°C° 0 mm 2 mps 592 mmHg 56%
    11:00 -3°C° 0 mm 2 mps 592 mmHg 56%
    12:00 -2°C° 0 mm 2 mps 592 mmHg 56%
    13:00 -2°C° 0 mm 2 mps 592 mmHg 58%
    14:00 -2°C° 0 mm 2 mps 591 mmHg 59%
    15:00 -2°C° 0 mm 2 mps 591 mmHg 61%
    16:00 -4°C° 0 mm 2 mps 591 mmHg 60%
    17:00 -5°C° 0 mm 2 mps 590 mmHg 59%
    18:00 -6°C° 0 mm 2 mps 590 mmHg 58%
    19:00 -6°C° 0 mm 2 mps 590 mmHg 58%
    20:00 -6°C° 0 mm 2 mps 590 mmHg 58%
    21:00 -6°C° 0 mm 2 mps 590 mmHg 58%
    22:00 -4°C° 0.1 mm 1 mps 590 mmHg 61%
    23:00 -4°C° 0.1 mm 1 mps 590 mmHg 63%

    18 December, Tuesday

    Time Temperature Precipitation Wind Pressure Humidity
    00:00 -3°C° 0.1 mm 1 mps 590 mmHg 66%
    01:00 -3°C° 0.2 mm 1 mps 590 mmHg 69%
    02:00 -3°C° 0.2 mm 1 mps 590 mmHg 73%
    03:00 -3°C° 0.2 mm 1 mps 590 mmHg 76%
    04:00 -3°C° 0.2 mm 1 mps 590 mmHg 78%
    05:00 -3°C° 0.2 mm 1 mps 590 mmHg 80%
    06:00 -3°C° 0.2 mm 1 mps 590 mmHg 81%
    07:00 -3°C° 0.2 mm 1 mps 590 mmHg 82%
    08:00 -2°C° 0.2 mm 1 mps 591 mmHg 82%
    09:00 -3°C° 0.2 mm 0 mps 591 mmHg 82%
    10:00 -1°C° 0.1 mm 1 mps 591 mmHg 80%
    11:00 -1°C° 0.1 mm 1 mps 591 mmHg 79%
    12:00 0°C° 0.1 mm 1 mps 592 mmHg 78%
    13:00 0°C° 0.1 mm 1 mps 591 mmHg 79%
    14:00 0°C° 0.1 mm 1 mps 591 mmHg 80%
    15:00 -1°C° 0.1 mm 1 mps 591 mmHg 81%
    16:00 -1°C° 0.1 mm 1 mps 591 mmHg 84%
    17:00 -2°C° 0.1 mm 1 mps 591 mmHg 86%
    18:00 -4°C° 0.1 mm 0 mps 591 mmHg 88%
    19:00 -3°C° 0 mm 1 mps 591 mmHg 87%
    20:00 -4°C° 0 mm 1 mps 591 mmHg 85%
    21:00 -4°C° 0 mm 1 mps 591 mmHg 84%
    22:00 -6°C° 0 mm 1 mps 591 mmHg 82%
    23:00 -6°C° 0 mm 1 mps 590 mmHg 80%
    Show more